Sterling, IL

6:26 AM CST on November 15, 2019 (GMT -0600)
Whiteside County-Bittorf

Weather History for KSQI - September, 2019

Change the Weather History Date:

Friday, September 20, 2019

  Actual Average Record
Temperature  
Mean Temperature 76 °F -  
Max Temperature 87 °F 71 °F 93 °F (2017)
Min Temperature 66 °F 47 °F 35 °F (2003)
Cooling Degree Days 12    
Growing Degree Days 26 (Base 50)    
Moisture  
Dew Point 68 °F    
Average Humidity 84    
Maximum Humidity 100    
Minimum Humidity 57    
Precipitation  
Precipitation 0.00 in - - ()
Sea Level Pressure  
Sea Level Pressure 29.69 in    
Wind  
Wind Speed 3 mph ()    
Max Wind Speed 8 mph    
Max Gust Speed -    
Visibility 9.3 miles    
Events      
Averages and records for this station are not official NWS values.
T = Trace of Precipitation, MM = Missing Value Source: Averaged Metar Reports

Daily Weather History Graph

Daily Weather History Graph

Search for Another Location

Airport or City:

Astronomy

Sep. 20, 2019 Rise Set
Actual Time 6:43 AM CDT 6:59 PM CDT
Civil Twilight 6:16 AM CDT 7:27 PM CDT
Nautical Twilight 5:43 AM CDT 8:00 PM CDT
Astronomical Twilight 5:09 AM CDT 8:33 PM CDT
Moon 10:44 PM CDT (9/20) 12:53 PM CDT (9/20)
Length of Visible Light 13h 11m
Length of Day
12h 15m
Waning Gibbous, 65% of the Moon is Illuminated
Sep 20
Waning Gibbous
Sep 21
Last Quarter
Sep 28
New
Oct 5
First Quarter
Oct 13
Full

Hourly Weather History & Observations

Time (CDT) Temp. Heat Index Dew Point Humidity Pressure Visibility Wind Dir Wind Speed Gust Speed Precip Events Conditions
12:56 AM 66.0 °F - 66.0 °F 100% 29.67 in 4.0 mi East 4.6 mph - N/A   Mostly Cloudy
1:56 AM 66.9 °F - 66.0 °F 97% 29.68 in 5.0 mi East 3.5 mph - N/A   Mostly Cloudy
2:56 AM 66.0 °F - 66.0 °F 100% 29.68 in 7.0 mi East 3.5 mph - N/A   Partly Cloudy
3:56 AM 66.0 °F - 64.9 °F 96% 29.69 in 9.0 mi ESE 3.5 mph - N/A   Mostly Cloudy
4:56 AM 66.9 °F - 66.9 °F 100% 29.69 in 10.0 mi Variable 3.5 mph - N/A   Clear
5:56 AM 68.0 °F - 66.9 °F 96% 29.70 in 10.0 mi ESE 3.5 mph - N/A   Scattered Clouds
6:56 AM 69.1 °F - 66.9 °F 93% 29.71 in 10.0 mi Calm Calm - N/A   Partly Cloudy
7:56 AM 69.1 °F - 68.0 °F 96% 29.72 in 10.0 mi Calm Calm - N/A   Clear
8:56 AM 70.0 °F - 66.9 °F 90% 29.74 in 10.0 mi WSW 4.6 mph - N/A   Partly Cloudy
9:56 AM 71.1 °F - 68.0 °F 90% 29.73 in 10.0 mi Calm Calm - N/A   Partly Cloudy
10:56 AM 77.0 °F - 68.0 °F 74% 29.71 in 10.0 mi ENE 3.5 mph - N/A   Clear
11:56 AM 82.0 °F 85.5 °F 69.1 °F 65% 29.71 in 10.0 mi SSW 3.5 mph - N/A   Clear
12:56 PM 87.1 °F 92.0 °F 70.0 °F 57% 29.70 in 10.0 mi NNE 6.9 mph - N/A   Clear
1:56 PM 84.0 °F 89.0 °F 71.1 °F 65% 29.68 in 10.0 mi East 8.1 mph - N/A   Partly Cloudy
2:56 PM 84.9 °F 88.8 °F 69.1 °F 59% 29.67 in 9.0 mi SSE 5.8 mph - N/A   Clear
3:56 PM 84.9 °F 88.8 °F 69.1 °F 59% 29.67 in 10.0 mi SSE 5.8 mph - N/A   Partly Cloudy
4:56 PM 82.9 °F 86.5 °F 69.1 °F 63% 29.67 in 10.0 mi SE 4.6 mph - N/A   Clear
5:56 PM 82.0 °F 86.3 °F 71.1 °F 69% 29.67 in 10.0 mi Variable 4.6 mph - N/A   Clear
6:56 PM 78.1 °F - 71.1 °F 79% 29.66 in 10.0 mi SE 3.5 mph - N/A   Clear
7:56 PM 73.0 °F - 71.1 °F 93% 29.67 in 10.0 mi East 3.5 mph - N/A   Clear
8:56 PM 71.1 °F - 70.0 °F 96% 29.68 in 10.0 mi East 5.8 mph - N/A   Clear
9:56 PM 70.0 °F - 69.1 °F 97% 29.69 in 10.0 mi SE 3.5 mph - N/A   Clear
10:56 PM 69.1 °F - 68.0 °F 96% 29.68 in 10.0 mi ESE 4.6 mph - N/A   Clear
11:56 PM 70.0 °F - 69.1 °F 97% 29.66 in 10.0 mi ESE 4.6 mph - N/A   Clear